Tracking 35237 objects as of 6-Sep-2026
HD Live streaming from Space Station
objects crossing your sky now

ANNA 1B


10-day predictions
ANNA 1B is classified as:


NORAD ID: 446
Int'l Code: 1962-060A
Launch date: October 31, 1962
Source: United States (US)
Launch site: AIR FORCE EASTERN TEST RANGE (AFETR)
Your satellite tracking list
Your tracking list is empty




NASA's NSSDC Master Catalog

Two Line Element Set (TLE):
1   446U 62060A   26249.50308605 -.00000116  00000-0  19478-4 0  9990
2   446  50.1417  61.2507 0069970 256.7975 139.8580 13.35365732114577
Source of the keplerian elements: AFSPC